Location: McFarlands Corners
(41.4117°N, 81.3382°W)
Time: 16:40:07
(UTC+00:00)

SR - Pass Details

Date: 24 February 2026
Orbit: 572 x 849 km, 66.7° (Epoch: 12 March)

Event Time Altitude Azimuth Distance (km) Brightness Sun altitude
Rises 07:20:16 0° 178° (S) 2,761 - -50.9°
Reaches altitude 10° 07:22:45 10° 164° (SSE) 1,876 - -50.6°
Maximum altitude 07:26:08 24° 110° (ESE) 1,219 - -50.2°
Drops below altitude 10° 07:29:39 10° 55° (NE) 1,949 - -49.7°
Sets 07:32:17 0° 42° (NE) 2,896 - -49.4°
